User: anonymous   Login
Location: Nag� el Ma?a??a
(24.0667°N, 32.8833°E)
Time: 18:02:13
(UTC+00:00)
Language:

Cosmos 192 - Orbit

View from above orbital plane
View from above orbital plane
View from above satellite
View from above satellite

Ground track
Ground track

The orbit data is extracted from the following two-line orbital elements,

1 03047U 67116A   21339.89357052  .00000060  00000-0  20249-4 0  9999
2 03047  74.0123 279.4002 0007463 139.8515 220.3201 14.55708805857765
Epoch (UTC): 05 December 2021 21:26:44
Eccentricity: 0.0007463
inclination: 74.0123°
perigee height: 702 km
apogee height: 712 km
right ascension of ascending node: 279.4002°
argument of perigee: 139.8515°
revolutions per day: 14.55708805
mean anomaly at epoch: 220.3201°
orbit number at epoch: 85776

The dashed part of the orbit path shows where the satellite is in the earth's shadow,  

DLR